SPACEBEE-75 (48637 NORAD) Tracking and Keplerian Element Data

This shows tracking and keplerian element data for the satellite.

Feedback or suggestion? Click here.




ElementValue
Catalog48637
NameSPACEBEE-75
Epoch Orbit2911
Epoch Day215.09638932
Epoch Year2021
RAAN272.7451
Inclination97.2541
Eccentricity0.0015464
Argument of Perigee292.0958
Mean Anonmoly67.8632
Mean Motion15.14479989
Decay Rate2.697E-05
L11 48637U 21006FD 21215.09638932 .00002697 00000-0 14962-3 0 9997
L22 48637 97.2541 272.7451 0015464 292.0958 67.8632 15.14479989 29113

Live tracking and technical data element details for SPACEBEE-75 (NORAD 48637). SPACEBEE-75 can be tracked NOW for your location showing map with azimuth and elevation plus other details from your city location.

Track the satellite on the map from your city or location and see movement details for azimuth, elevation, latitude, longitude, range, height, and movement on the map or in text.







IsCatalogInMostPopularTable: catalog: 48637, numindb: 18
Update: records affected: 1



GetName: 48637 SPACEBEE-75

Hit Count: updated at: Tue, 03 Aug 2021 21:47:19 GMT